Regional Weather Roundup
Issued by NWS

Home | Current Version | Previous Version | Graphics & Text | Print | Product List | Glossary On
Versions: 1 2 3 4 5 6 7 8 9 10 11 12 13 14 15 16 17 18 19 20 21 22 23 24 25 26 27 28 29 30 31 32 33 34 35 36 37 38 39 40 41 42 43 44 45 46 47 48 49 50
102
ASUS45 KCYS 250310
RWRWY

WYOMING REGIONAL WEATHER ROUNDUP
NATIONAL WEATHER SERVICE CHEYENNE WY
800 PM MST FRI FEB 24 2017

NOTE:  "FAIR" INDICATES FEW OR NO CLOUDS BELOW 12,000 FEET
WITH NO SIGNIFICANT WEATHER AND/OR OBSTRUCTIONS TO VISIBILITY.

WYZ001-250400-
YELLOWSTONE NATIONAL PARK

CITY           SKY/WX    TMP DP  RH WIND       PRES   REMARKS
LK YELLOWSTONE   N/A      8   3  80 CALM      29.94R
W YELLOWSTONE  NOT AVBL

$$
WYZ002>013-054>058-071-098>099-250400-
NORTHERN WYOMING

CITY           SKY/WX    TMP DP  RH WIND       PRES   REMARKS
JACKSON        CLEAR     12   9  85 S10       30.00R WCI  -1
CODY           LGT SNOW  23  20  88 N7        29.98R FOG     WCI  15
GREYBULL       CLOUDY    27  21  78 NW5       30.00R WCI  22
WORLAND        CLOUDY    23  19  85 S3        29.99R
SHERIDAN       FLURRIES  27  21  78 W8        29.99R WCI  19
BUFFALO        CLOUDY    20  12  71 NW3       29.95F
GILLETTE       CLOUDY    19  15  84 S12       29.97F WCI   7
HULETT         CLOUDY    23  18  80 MISG      29.99S
NEWCASTLE      FAIR      16  14  93 CALM      30.03S

$$
WYZ014>020-022>026-101>103-250400-
CENTRAL WYOMING

CITY           SKY/WX    TMP DP  RH WIND       PRES   REMARKS
BIG PINEY      CLOUDY     5  -1  76 N10       29.97R WCI -10
PINEDALE       FAIR       3  -4  72 NW3       29.98R
DUBOIS         MOCLDY    10   3  72 NW12      29.89R WCI  -4
LANDER         FAIR      11   7  84 SE3       29.95R
RIVERTON       MOCLDY    13   9  84 W6        29.96R WCI   4
CASPER         FAIR       9   5  84 SW10      29.95F WCI  -5
DOUGLAS        FAIR       6   3  87 CALM      29.99S

$$
WYZ021-027>030-104>119-250400-
SOUTHERN WYOMING

CITY           SKY/WX    TMP DP  RH WIND       PRES   REMARKS
EVANSTON       FAIR       8   1  73 SW8       30.02R WCI  -4
FORT BRIDGER   FAIR       8   4  81 SW10      30.04R WCI  -6
ROCK SPRINGS   FAIR      13   6  74 W20       29.98R WCI  -5
DIXON            N/A      2  -2  82 NE3       30.03R
RAWLINS        FAIR      11   4  73 W16       29.94R WCI  -6
SARATOGA       FAIR      10   5  79 SW10      29.96R WCI  -3
LARAMIE        FAIR       2   0  91 S7        29.90S WCI -11
CHEYENNE       FAIR       5   1  83 W7        29.96S WCI  -7
TORRINGTON     FAIR      14  12  92 S3        30.03S
PINE BLUFFS    FAIR      10   9  92 W14       30.01S WCI  -5

$$




USA.gov is the U.S. government's official web portal to all federal, state and local government web resources and services.